DMSP 5D-2 F11 (USA 73)

导读

DMSP 5D-2 F11(USA 73)是美国国防气象卫星计划的气象观测卫星,由洛克希德·马丁系列企业研发,1991年11月28日于范登堡空军基地发射升空。它运行在倾角98.7°的太阳同步轨道,轨道高度约835公里,设计寿命5年,实际服役达22年。该卫星因航天器电池设计缺陷,于2004年解体,产生56块空间碎片,为卫星退役处置提供了参考案例。

Basic Information
目录编号:
21798
目录名称:
DMSP 5D-2 F11 (USA 73)
国际标识:
1991-082A
轨道中心:
EARTH
卫星名称:
DMSP 5D-2 F11 (USA 73)
卫星全名:
--
卫星状态:
在轨 (已飞行12709 天)
发射日期:
1991-11-28 UTC
国别 :
美国 (US)
星等 :
--
This satellite is enrolled in the Space Conjunction Data Service (SCDS) and the current flight risk assessment level is: No High Risk
Orbit Information
数据来源 国际轨道数据 AOE轨道数据
星历时间 2026-09-14T04:45:06+0800
6小时前
查看轨道信息
2026-09-12T22:00:00+0800
1天前
查看轨道信息
半长轴 7212.069km 7212.071km
偏心率 0.001267 0.0012697
轨道倾角 98.687° 98.689°
近地点辐角 22.123° 24.208°
升交点赤经 283.175° 281.924°
平近点角 338.049° 281.214°
近地点 824.794km 824.776km
远地点 843.07km 843.092km
周期 101.590分钟 101.590分钟
每日圈数 14.17467 14.174665
Detailed Information
使用方式:
暂无
2D Orbit Map
3D Orbit Map
Orbit Altitude Analysis Chart
Orbit Inclination Analysis Chart
Orbit Comprehensive Analysis Chart
View Comprehensive Chart
Miss Distance Evolution Trend with All Objects Subscribe to Flight Safety Assessment
Collision Probability Evolution Trend with All Objects Subscribe to Flight Safety Assessment